Flag for Germany Weather past 2 weeks in Zeitz, Saxony-Anhalt, Germany

Now
64 °F

Partly sunny.


Feels Like: 64 °F
Forecast: 63 / 93 °F
Wind: 2 mph from Northeast

Location: Gera-Leumnitz

Current Time: Aug 5, 2015 at 10:53:16 AM

Latest Report: Aug 5, 2015 at 10:00 AM


Visibility: 28 mi

Pressure: 30.14 "Hg

Humidity: 65%

Dew point: 52 °F

Location of ZeitzLocation

Historic Weather in Zeitz — Graph

°F

Zeitz temperature yesterday

Maximum temperature yesterday: 91 °F (at 3:00 PM)
Minimum temperature yesterday: 63 °F (at 6:00 AM)
Average temperature yesterday: 76 °F

Past Weeks' High & Low Weather Summary

 TemperatureHumidityPressure
High91 °F (Aug 4, 3:00 PM)99% (Jul 23, 12:00 AM)30.14 "Hg (Jul 23, 12:00 AM)
Low47 °F (Jul 31, 5:00 AM)25% (Aug 4, 6:00 PM)29.60 "Hg (Jul 27, 1:00 PM)
Average67 °F60%29.90 "Hg
* Reported Jul 21 9:00 AM — Aug 5 9:00 AM, Zeitz, Weather by CustomWeather, © 2015

Note: Actual official high and low records may vary slightly from our data, if they occured in-between our weather recording intervals... More about our weather records

Advertising

Zeitz weather history for previous 24 hours

 ConditionsComfort  
Time TempWeatherWind HumidityBarometerVisibility
9:00 AM
Wed, Aug 5
62 °FOvercast.1 mph76%30.14 "Hg28 mi
8:00 AM61 °FOvercast.2 mph80%30.13 "Hg28 mi
7:00 AM60 °FOvercast.3 mph81%30.12 "Hg25 mi
6:00 AM60 °FScattered clouds.3 mph85%30.11 "Hg25 mi
5:00 AM61 °FPassing clouds.3 mph85%30.09 "Hg28 mi
4:00 AM64 °FPassing clouds.6 mph87%30.07 "Hg17 mi
3:00 AM65 °FPassing clouds.2 mph85%30.06 "Hg43 mi
2:00 AM65 °FOvercast.1 mph86%30.05 "Hg43 mi
1:00 AM67 °FOvercast.2 mph78%30.04 "Hg43 mi
12:00 AM66 °FOvercast.5 mph80%30.03 "Hg43 mi
11:00 PM
Tue, Aug 4
66 °FOvercast.3 mph80%30.01 "Hg43 mi
10:00 PM67 °FOvercast.3 mph77%30.00 "Hg43 mi
9:00 PM72 °FThundershowers. Overcast.7 mph66%29.97 "Hg25 mi
8:00 PM76 °FOvercast.9 mph53%29.90 "Hg22 mi
7:00 PM80 °FOvercast.13 mph48%29.86 "Hg22 mi
6:00 PM91 °FPartly sunny.6 mph25%29.81 "Hg28 mi
5:00 PM90 °FPartly sunny.6 mph27%29.81 "Hg28 mi
4:00 PM90 °FPartly sunny.6 mph28%29.81 "Hg25 mi
3:00 PM91 °FScattered clouds.5 mph27%29.82 "Hg25 mi
2:00 PM89 °FScattered clouds.7 mph28%29.84 "Hg25 mi
1:00 PM88 °FPassing clouds.6 mph31%29.85 "Hg25 mi
12:00 PM86 °FPassing clouds.6 mph36%29.86 "Hg28 mi
11:00 AM85 °FPassing clouds.5 mph39%29.88 "Hg28 mi
10:00 AM79 °FPassing clouds.3 mph47%29.90 "Hg25 mi
Weather by CustomWeather, © 2015

See weather overviewHow to use our weather pages